Погода в Пробуждении

Россия / Саратовская область     51°26′01″N   46°09′06″E
темп.,
°C
ветер,
м/с
пор.,
м/с
влажн.,
%
обл.,
%
осадки,
мм/ч
давл.,
гПа
погр.,
м
30 июня, чт
чт3001:00+13юз00676 0.0 101737
04:00+13зюз337334 0.0 101770
07:00+15сз356821 0.0 1016233
10:00+19сз34550 0.0 1016945
13:00+21зсз344651 0.0 10141668
16:00+20сз5852100 0.0 1013360
19:00+20зсз2460100 0.0 1012116
22:00+18зсз335349 0.0 101240
1 июля, пт
пт101:00+15зсз346444 0.0 101146
04:00+14сз4777100 0.3 1010158
07:00+14ссз5782100 0.2 1009457
10:00+15с4679100 2.6 1009563
13:00+13св6881100 3.0 1010730
16:00+12ссв5879100 4.6 1011678
19:00+12св4780100 1.4 1011598
22:00+11ссз61187100 5.8 1010723
2 июля, сб
сб201:00+10ссз71191100 1.9 1008631
04:00+10ссв4696100 2.1 1008204
07:00+12с71191100 0.1 1008580
10:00+14ссв81289100 0.6 1009854
13:00+17ссв91274100 1.8 10091239
16:00+15с61387100 4.9 1009827
19:00+17ссв8157883 0.3 1009948
22:00+15с6128425 0.4 1010402
3 июля, вс
вс301:00+14ссз6138720 0.0 1010388
04:00+13с6128698 0.0 1010349
07:00+15ссз511795 0.0 1011362
10:00+20с69600 0.0 1011802
13:00+23с68493 0.0 10111459
16:00+24с57448 0.0 10111711
19:00+23ссз465799 0.0 1011210
22:00+19с46681 0.0 1012117
4 июля, пн
пн401:00+16ссз337913 0.0 101341
04:00+15ссз3380100 0.0 101346
07:00+17с477936 0.1 1013268
10:00+20ссв676620 0.1 1014882
13:00+23ссв684514 0.1 10141737
16:00+23ссв89405 0.1 10141878
19:00+22ссв69525 0.0 1015513
22:00+17ссв33705 0.0 101735